Change the Weather History Date:

Sunday, April 14, 2013

  Actual Average Record
Temperature  
Mean Temperature 34 °F 44 °F  
Max Temperature 43 °F 59 °F 86 °F (1942)
Min Temperature 24 °F 29 °F 13 °F (1983)
Degree Days  
Heating Degree Days 31 21  
Month to date heating degree days 389 320  
Since 1 July heating degree days 6158 6477  
Cooling Degree Days 0 0  
Month to date cooling degree days 0 0  
Year to date cooling degree days 0 0  
Moisture  
Dew Point 27 °F    
Average Humidity 67    
Maximum Humidity 85    
Minimum Humidity 49    
Precipitation  
Precipitation T in 0.07 in 1.37 in (1927)
Month to date precipitation 0.13 0.76  
Year to date precipitation 1.67 2.96  
Sea Level Pressure  
Sea Level Pressure 29.60 in    
Wind  
Wind Speed 24 mph (WNW)    
Max Wind Speed 39 mph    
Max Gust Speed 47 mph    
Visibility 10 miles    
Events      
T = Trace of Precipitation, MM = Missing Value Source: NWS Daily Summary

Daily Weather History Graph

Daily Weather History Graph

Search for Another Location

Airport or City:

Trip Planner

Search our weather history database for the weather conditions in past years. The results will help you decide how hot, cold, wet, or windy it might be!

Date:

Astronomy

Apr. 14, 2013 Rise Set
Actual Time 6:11 AM MDT 7:33 PM MDT
Civil Twilight 5:42 AM MDT 8:03 PM MDT
Nautical Twilight 5:07 AM MDT 8:38 PM MDT
Astronomical Twilight 4:29 AM MDT 9:16 PM MDT
Moon 8:46 AM MDT (4/14) 11:53 PM MDT (4/14)
Length of Visible Light 14h 20m
Length of Day
13h 21m
Waxing Crescent, 17% of the Moon is Illuminated
Apr 14
Waxing Crescent
Apr 18
First Quarter
Apr 25
Full
May 2
Last Quarter
May 9
New

Hourly Weather History & Observations

Time (MDT) Temp. Windchill Dew Point Humidity Pressure Visibility Wind Dir Wind Speed Gust Speed Precip Events Conditions
12:53 AM 39.9 °F 30.8 °F 35.1 °F 83% 29.47 in 10.0 mi West 18.4 mph 29.9 mph 0.00 in   Mostly Cloudy
1:03 AM 39.2 °F 31.6 °F 33.8 °F 81% 29.44 in 10.0 mi West 12.7 mph 21.9 mph N/A   Mostly Cloudy
1:53 AM 37.9 °F 31.5 °F 34.0 °F 86% 29.47 in 10.0 mi WSW 9.2 mph - N/A   Partly Cloudy
2:53 AM 37.9 °F 26.8 °F 33.1 °F 83% 29.45 in 10.0 mi West 24.2 mph 34.5 mph N/A   Clear
3:53 AM 37.0 °F 26.2 °F 32.0 °F 82% 29.45 in 10.0 mi West 21.9 mph - N/A   Clear
4:53 AM 36.0 °F 26.7 °F 30.9 °F 82% 29.47 in 10.0 mi West 15.0 mph - N/A   Mostly Cloudy
5:06 AM 35.6 °F 28.6 °F 30.2 °F 81% 29.43 in 10.0 mi West 9.2 mph - N/A   Mostly Cloudy
5:39 AM 35.6 °F 27.1 °F 30.2 °F 81% 29.44 in 10.0 mi WNW 12.7 mph - N/A   Mostly Cloudy
5:53 AM 36.0 °F 26.0 °F 30.9 °F 82% 29.49 in 10.0 mi West 17.3 mph 21.9 mph N/A   Mostly Cloudy
6:53 AM 36.0 °F 23.9 °F 30.9 °F 82% 29.50 in 10.0 mi West 25.3 mph 31.1 mph N/A   Overcast
7:53 AM 35.1 °F 22.2 °F 28.9 °F 78% 29.50 in 10.0 mi West 27.6 mph 36.8 mph N/A   Mostly Cloudy
8:53 AM 35.1 °F 21.2 °F 30.0 °F 82% 29.54 in 7.0 mi WNW 33.4 mph 46.0 mph N/A   Mostly Cloudy
9:53 AM 37.0 °F 25.4 °F 28.0 °F 70% 29.56 in 10.0 mi WNW 25.3 mph 40.3 mph N/A   Mostly Cloudy
10:53 AM 37.9 °F 25.7 °F 27.0 °F 65% 29.57 in 10.0 mi WNW 29.9 mph 39.1 mph N/A   Overcast
11:53 AM 39.9 °F 28.2 °F 26.1 °F 58% 29.59 in 10.0 mi WNW 31.1 mph 42.6 mph N/A   Mostly Cloudy
12:53 PM 39.9 °F 27.8 °F 24.1 °F 53% 29.60 in 10.0 mi WNW 33.4 mph 47.2 mph N/A   Mostly Cloudy
2:53 PM 41.0 °F 29.7 °F 27.0 °F 57% 29.62 in 9.0 mi West 31.1 mph 43.7 mph 0.00 in   Overcast
3:53 PM 43.0 °F 32.9 °F 26.1 °F 51% 29.61 in 10.0 mi West 27.6 mph 39.1 mph N/A   Scattered Clouds
4:53 PM 43.0 °F 32.5 °F 25.0 °F 49% 29.63 in 10.0 mi West 29.9 mph 38.0 mph N/A   Mostly Cloudy
5:53 PM 39.0 °F 29.0 °F 25.0 °F 57% 29.68 in 10.0 mi NW 20.7 mph 35.7 mph N/A   Overcast
6:53 PM 37.9 °F 27.3 °F 24.1 °F 57% 29.72 in 10.0 mi NW 21.9 mph 32.2 mph N/A   Mostly Cloudy
7:53 PM 34.0 °F 22.7 °F 23.0 °F 64% 29.78 in 10.0 mi NW 19.6 mph 26.5 mph N/A   Partly Cloudy
8:53 PM 30.9 °F 18.1 °F 21.0 °F 67% 29.84 in 10.0 mi NW 21.9 mph 32.2 mph N/A   Overcast
9:53 PM 28.9 °F 15.1 °F 19.0 °F 67% 29.89 in 10.0 mi WNW 23.0 mph 31.1 mph N/A   Overcast
10:53 PM 27.0 °F 16.1 °F 19.0 °F 72% 29.92 in 10.0 mi WNW 12.7 mph - N/A   Overcast
11:53 PM 26.1 °F 14.0 °F 17.1 °F 69% 29.91 in 10.0 mi WNW 15.0 mph 29.9 mph N/A   Clear